Date,TemperatureHighF,TemperatureAvgF,TemperatureLowF,DewpointHighF,DewpointAvgF,DewpointLowF,HumidityHigh,HumidityAvg,HumidityLow,PressureMaxIn,PressureMinIn,WindSpeedMaxMPH,WindSpeedAvgMPH,GustSpeedMaxMPH,PrecipitationSumIn
2013-2-1,34.5,27.3,18.2,24.7,-15.9,-99.9,72,53,33,30.40,29.78,13,1,15,0.00
2013-2-2,33.6,23.2,13.3,25.7,-3.4,-99.9,93,72,43,30.39,30.00,10,1,13,0.00
2013-2-3,40.6,32.0,25.5,28.1,-1.8,-99.9,93,71,49,30.00,29.82,17,2,17,0.00
2013-2-4,36.8,30.6,20.5,23.8,-1.6,-99.9,87,59,48,30.11,29.90,9,1,14,0.00
2013-2-5,55.9,37.4,25.7,36.6,7.7,-99.9,93,72,45,29.92,29.83,12,1,16,0.00
2013-2-6,54.6,39.5,26.1,31.7,18.0,-99.9,94,65,34,30.34,29.91,8,1,0,0.00
2013-2-7,39.9,34.8,26.7,29.7,3.5,-99.9,90,74,59,30.41,30.16,3,0,0,0.00
2013-2-8,54.4,39.2,31.5,42.4,3.8,-99.9,97,77,50,30.16,29.75,13,1,16,0.16
2013-2-9,48.9,37.8,22.5,23.4,12.0,-99.9,95,51,24,30.37,29.92,17,1,24,0.00
2013-2-10,45.1,31.6,17.7,32.2,-0.1,-99.9,93,66,35,30.49,30.21,11,1,14,0.00
2013-2-11,57.9,48.3,37.7,51.0,17.8,-99.9,96,80,26,30.22,29.76,16,4,17,0.00
2013-2-12,61.4,50.5,40.8,32.9,3.3,-99.9,95,43,22,29.97,29.81,19,2,19,0.00
2013-2-13,45.2,38.6,33.2,36.3,8.3,-99.9,95,79,57,29.91,29.63,5,0,0,0.02
2013-2-14,52.9,37.1,27.1,33.1,2.2,-99.9,97,73,34,30.03,29.79,11,1,12,0.00
2013-2-15,59.7,40.2,23.3,40.2,10.4,-99.9,95,73,38,30.05,29.86,12,2,15,0.00
2013-2-16,41.2,36.6,28.3,34.1,3.3,-99.9,85,67,53,29.98,29.82,7,1,0,0.00
2013-2-17,31.2,26.4,20.4,15.7,-13.0,-99.9,60,46,31,30.24,29.88,17,2,17,0.00
2013-2-18,48.4,29.8,11.7,24.7,-2.1,-99.9,88,57,30,30.39,30.14,12,2,0,0.00
2013-2-19,48.1,41.7,37.7,41.9,9.1,-99.9,94,65,37,30.14,29.73,16,6,17,0.14
2013-2-20,38.7,34.7,29.5,20.8,-28.1,-99.9,56,45,40,30.14,29.88,12,3,17,0.00
2013-2-21,47.5,35.6,22.9,22.1,0.1,-99.9,74,47,31,30.32,30.12,7,1,0,0.00
2013-2-22,38.2,34.5,31.0,29.9,11.8,-99.9,83,70,55,30.33,30.18,6,1,0,0.02
2013-2-23,55.4,40.0,31.9,43.3,10.4,-99.9,95,84,63,30.19,29.81,3,0,0,0.00
2013-2-24,57.9,42.4,30.8,41.6,11.1,-99.9,99,65,27,30.10,29.80,8,1,0,0.00
2013-2-25,45.8,34.6,24.3,23.1,2.5,-99.9,86,57,38,30.22,30.09,5,0,0,0.00
2013-2-26,40.1,31.4,23.4,39.6,8.8,-99.9,98,92,78,30.22,29.60,5,0,0,0.91
2013-2-27,53.7,44.1,32.4,43.0,5.3,-99.9,100,76,49,29.70,29.56,13,2,19,0.00
2013-2-28,46.6,41.6,38.0,33.4,11.4,-99.9,77,61,45,29.78,29.64,11,2,13,0.00